Tracking 18665 objects as of 23-June-2017
HD Live streaming from Space Station
objects crossing your sky now

SCOUT X-4 R/B

Track SCOUT X-4 R/B now!
10-day predictions


NORAD ID: 1739
Int'l Code: 1965-093B
Perigee: 661.0 km
Apogee: 796.2 km
Inclination: 59.7 °
Period: 99.2 minutes
Semi major axis: 7099 km
RCS: 0.5409 m2 (medium)
Launch date: November 19, 1965
Source: United States (US)
Launch site: WALLOPS ISLAND (WLPIS)

Note: This is a ROCKET BODY
Your satellite tracking list
Your tracking list is empty





NASA's NSSDC Master Catalog

Two Line Element Set (TLE):
1  1739U 65093B   17173.54760487 -.00000053 +00000-0 +26461-4 0  9995
2  1739 059.7053 049.6783 0095223 082.3711 278.8134 14.51291293693627
Source of the keplerian elements: AFSPC